Location: Oshawa
(43.9000°N, 78.8670°W)
Time: 20:45:45
(UTC-05:00)

CARTOSAT-1 - Pass Details

Date: 18 August 2017
Orbit: 618 x 619 km, 97.8° (Epoch: 24 November)

Event Time Altitude Azimuth Distance (km) Brightness Sun altitude
Exits shadow 22:17:13 24° 70° (ENE) 1,288 4.9 -19.9°
Maximum altitude 22:17:22 24° 67° (ENE) 1,287 4.9 -19.9°
Drops below altitude 10° 22:20:50 10° 13° (NNE) 1,994 6.5 -20.3°
Sets 22:23:21 0° 360° (N) 2,904 7.7 -20.7°
